Location: Castelnau
(43.6639°N, 0.8431°W)
Time: 17:17:16
(UTC+00:00)

Cosmos 1328 - Pass Details

Date: 13 January 2026
Orbit: 461 x 472 km, 82.5° (Epoch: 10 February)

Event Time Altitude Azimuth Distance (km) Brightness Sun altitude
Rises 06:54:39 0° 354° (N) 2,521 6.9 -7.4°
Reaches altitude 10° 06:56:45 10° 357° (N) 1,641 6.0 -7.0°
Maximum altitude 07:00:19 65° 81° (E) 522 4.0 -6.4°
Drops below altitude 10° 07:03:52 10° 164° (SSE) 1,635 6.9 -5.8°
Sets 07:05:58 0° 167° (SSE) 2,510 7.8 -5.5°
